Flag for India Weather past 2 weeks in Kapurthala, Punjab, India

Now
84 °F

Fog.


Feels Like: 96 °F
Forecast: 82 / 97 °F
Wind: No wind

Location: Amritsar Airport

Current Time: Jul 8, 2015 at 2:22:32 AM

Latest Report: Jul 8, 2015 at 1:30 AM


Visibility: 2 mi

Pressure: 29.53 "Hg

Humidity: 84%

Dew point: 79 °F

Location of KapurthalaLocation

Historic Weather in Kapurthala — Graph

°F

Kapurthala temperature yesterday

Maximum temperature yesterday: 90 °F (at 2:30 PM)
Minimum temperature yesterday: 79 °F (at 5:00 AM)
Average temperature yesterday: 84 °F

Past Weeks' High & Low Weather Summary

 TemperatureHumidityPressure
High106 °F (Jun 28, 4:00 PM)100% (Jun 24, 4:00 AM)29.71 "Hg (Jun 24, 4:00 AM)
Low73 °F (Jun 23, 12:00 PM)27% (Jun 27, 2:30 PM)29.36 "Hg (Jun 25, 5:30 PM)
Average88 °F66%29.52 "Hg
* Reported Jun 23 12:30 AM — Jul 8 1:00 AM, Kapurthala, Weather by CustomWeather, © 2015

Note: Actual official high and low records may vary slightly from our data, if they occured in-between our weather recording intervals... More about our weather records

Advertising

Kapurthala weather history for previous 24 hours

 ConditionsComfort  
Time TempWeatherWind HumidityBarometerVisibility
1:00 AM
Wed, Jul 8
84 °FFog.No wind84%29.56 "Hg1 mi
12:30 AM84 °FFog.No wind79%29.53 "Hg1 mi
12:00 AM84 °FFog.No wind79%29.53 "Hg1 mi
11:30 PM
Tue, Jul 7
84 °FFog.No wind79%29.53 "Hg1 mi
11:00 PM84 °FFog.No wind79%29.53 "Hg1 mi
10:30 PM84 °FFog.No wind79%29.53 "Hg2 mi
9:30 PM84 °FFog.No wind79%29.53 "Hg2 mi
9:00 PM86 °FFog.2 mph75%29.50 "Hg2 mi
8:30 PM86 °FMostly cloudy.1 mph75%29.50 "Hg2 mi
8:00 PM86 °FMostly cloudy.5 mph75%29.47 "Hg2 mi
7:00 PM88 °FMostly cloudy.1 mph70%29.47 "Hg2 mi
6:30 PM88 °FMostly cloudy.2 mph70%29.47 "Hg2 mi
6:00 PM88 °FMostly cloudy.No wind66%29.45 "Hg2 mi
5:30 PM90 °FMostly cloudy.2 mph63%29.45 "Hg2 mi
5:00 PM90 °FMostly cloudy.5 mph63%29.47 "Hg2 mi
4:30 PM88 °FMostly cloudy.3 mph66%29.47 "Hg2 mi
4:00 PM90 °FBroken clouds.2 mph63%29.50 "Hg2 mi
2:30 PM90 °FMore clouds than sun.8 mph67%29.53 "Hg2 mi
11:00 AM88 °FBroken clouds.7 mph66%29.56 "Hg2 mi
10:30 AM86 °FBroken clouds.7 mph70%29.56 "Hg2 mi
9:00 AM81 °FFog.6 mph89%29.53 "Hg1 mi
8:30 AM81 °FFog.No wind89%29.53 "Hg1 mi
7:30 AM81 °FFog.2 mph84%29.50 "Hg1 mi
6:00 AM79 °FFog.No wind89%29.50 "Hg1 mi
5:30 AM79 °FFog.No wind89%29.47 "Hg2 mi
5:00 AM79 °FFog.No wind89%29.47 "Hg2 mi
4:30 AM81 °FFog.No wind84%29.47 "Hg2 mi
3:30 AM81 °FFog.No wind84%29.47 "Hg2 mi
3:00 AM81 °FFog.No wind84%29.50 "Hg2 mi
2:30 AM81 °FFog.No wind79%29.50 "Hg2 mi
2:00 AM81 °FFog.7 mph79%29.47 "Hg2 mi
Weather by CustomWeather, © 2015

See weather overviewHow to use our weather pages